FW8264 Weather Reports


time (UTC)temp
C
wind
direction
speed
KPH
gust
KPH
rain 1hr
cm
rain 24hr
cm
rain mn
cm
humidity
%
barometer
mb
20260503204551 17 192 14.5 40.2 0.00 0.00 0.00 45 1003.9
20260503203112 17 248 11.3 29.0 0.00 0.00 0.00 47 1004.3
20260503201554 17 263 9.7 35.4 0.00 0.00 0.00 47 1004.4
20260503200053 17 264 11.3 32.2 0.00 0.00 0.00 47 1004.7
20260503194552 17 254 14.5 35.4 0.00 0.00 0.00 45 1004.9
20260503193055 17 295 12.9 46.7 0.00 0.00 0.00 46 1005.0
20260503191553 17 240 14.5 32.2 0.00 0.00 0.00 44 1004.8
20260503190105 17 266 14.5 38.6 0.00 0.00 0.00 47 1004.9
20260503184554 16 231 11.3 38.6 0.00 0.00 0.00 47 1005.0
20260503183049 16 258 12.9 43.5 0.00 0.00 0.00 48 1005.5
20260503181558 16 195 12.9 30.6 0.00 0.00 0.00 51 1005.9
20260503180056 15 143 17.7 40.2 0.00 0.00 0.00 50 1006.1
20260503174550 15 193 16.1 30.6 0.00 0.00 0.00 53 1006.4
20260503173052 14 153 14.5 40.2 0.00 0.00 0.00 55 1006.7
20260503171549 14 232 8.0 30.6 0.00 0.00 0.00 52 1006.8
20260503100106 8 293 6.4 17.7 0.00 0.00 0.00 55 1009.9
20260503081557 8 181 6.4 17.7 0.00 0.00 0.00 55 1010.5
20260503071553 8 283 3.2 9.7 0.00 0.00 0.00 54 1010.9
20260503060116 8 264 4.8 9.7 0.00 0.00 0.00 54 1011.5
20260503054602 8 263 3.2 11.3 0.00 0.00 0.00 53 1011.7
20260503053049 8 252 3.2 19.3 0.00 0.00 0.00 52 1011.9
20260503051551 8 260 3.2 9.7 0.00 0.00 0.00 52 1012.0
20260503050055 8 225 4.8 12.9 0.00 0.00 0.00 52 1012.0
20260503044553 8 234 3.2 9.7 0.00 0.00 0.00 52 1012.1
20260503043051 8 262 0.0 11.3 0.00 0.00 0.00 52 1012.2
20260503041556 8 266 1.6 9.7 0.00 0.00 0.00 52 1012.3
20260503040053 8 243 0.0 11.3 0.00 0.00 0.00 52 1012.3
20260503034600 8 279 1.6 8.0 0.00 0.00 0.00 54 1012.4
20260503033104 8 0 1.6 8.0 0.00 0.00 0.00 54 1012.5
20260503031553 7 0 0.0 6.4 0.00 0.00 0.00 57 1012.7
20260503030055 7 0 0.0 4.8 0.00 0.00 0.00 60 1012.9
20260503024549 7 0 0.0 1.6 0.00 0.00 0.00 61 1012.9
20260503023053 7 194 0.0 1.6 0.00 0.00 0.00 61 1013.0
20260503021550 7 148 0.0 4.8 0.00 0.00 0.00 61 1013.0
20260503020049 7 0 0.0 1.6 0.00 0.00 0.00 60 1013.0
20260503014548 7 0 0.0 3.2 0.00 0.00 0.00 58 1012.8
20260503013050 8 0 0.0 1.6 0.00 0.00 0.00 56 1012.6
20260503011546 9 0 0.0 3.2 0.00 0.00 0.00 51 1012.6
20260503010052 11 210 0.0 1.6 0.00 0.00 0.00 40 1012.7
20260503004550 11 0 0.0 6.4 0.00 0.00 0.00 41 1012.7
20260503003053 12 250 0.0 9.7 0.00 0.00 0.00 38 1012.7
20260503001556 12 269 1.6 12.9 0.00 0.00 0.00 38 1012.7
20260503000050 12 228 0.0 8.0 0.00 0.00 0.00 39 1012.8
20260502234558 12 0 0.0 8.0 0.00 0.00 0.00 38 1012.9
20260502233056 12 0 0.0 8.0 0.00 0.00 0.00 37 1013.1
20260502231601 12 277 3.2 9.7 0.00 0.00 0.00 37 1013.1
20260502230052 12 291 3.2 11.3 0.00 0.00 0.00 36 1013.3
20260502224550 12 0 0.0 9.7 0.00 0.00 0.00 36 1013.5
20260502223054 13 272 1.6 9.7 0.00 0.00 0.00 35 1013.6
20260502221554 12 212 3.2 9.7 0.00 0.00 0.00 37 1013.7
20260502220058 12 0 3.2 11.3 0.00 0.00 0.00 36 1013.8
20260502214557 13 311 4.8 8.0 0.00 0.00 0.00 35 1013.8
20260502213100 13 269 1.6 11.3 0.00 0.00 0.00 36 1014.0
20260502211549 13 328 3.2 11.3 0.00 0.00 0.00 38 1014.0
20260502210045 12 300 1.6 12.9 0.00 0.00 0.00 36 1014.1